Bennington, VT

5:40 AM EDT on March 26, 2017 (GMT -0400)
Morse State

Weather History for KDDH - March, 2014

Change the Weather History Date:

Monday, March 10, 2014

  Actual Average Record
Temperature  
Mean Temperature 34 °F 31 °F  
Max Temperature 43 °F 41 °F 66 °F (2016)
Min Temperature 24 °F 21 °F 1 °F (2005)
Degree Days  
Heating Degree Days 31 34  
Month to date heating degree days 458 354  
Since 1 July heating degree days 5706 5605  
Cooling Degree Days 0 0  
Month to date cooling degree days 0 0  
Year to date cooling degree days 0 0  
Moisture  
Dew Point 21 °F    
Average Humidity 68    
Maximum Humidity 81    
Minimum Humidity 54    
Precipitation  
Precipitation T in 0.09 in 0.55 in (2016)
Month to date precipitation 0.01 0.91  
Year to date precipitation 5.87 5.90  
Sea Level Pressure  
Sea Level Pressure 29.73 in    
Wind  
Wind Speed 2 mph (SE)    
Max Wind Speed 14 mph    
Max Gust Speed 22 mph    
Visibility 8 miles    
Events Snow    
T = Trace of Precipitation, MM = Missing Value Source: NWS Daily Summary

Daily Weather History Graph

Daily Weather History Graph

Search for Another Location

Airport or City:

Trip Planner

Search our weather history database for the weather conditions in past years. The results will help you decide how hot, cold, wet, or windy it might be!

Date:

Astronomy

Mar. 10, 2014 Rise Set
Actual Time 7:13 AM EDT 6:53 PM EDT
Civil Twilight 6:45 AM EDT 7:21 PM EDT
Nautical Twilight 6:12 AM EDT 7:54 PM EDT
Astronomical Twilight 5:39 AM EDT 8:27 PM EDT
Moon 1:28 PM EDT (3/10) 3:29 AM EDT (3/10)
Length of Visible Light 12h 36m
Length of Day
11h 39m
Waxing Gibbous, 70% of the Moon is Illuminated
Mar 10
Waxing Gibbous
Mar 16
Full
Mar 23
Last Quarter
Mar 30
New
Apr 7
First Quarter

Hourly Weather History & Observations

Time (EDT) Temp. Windchill Dew Point Humidity Pressure Visibility Wind Dir Wind Speed Gust Speed Precip Events Conditions
12:54 AM 26.1 °F - 12.0 °F 55% 29.86 in 10.0 mi Calm Calm - N/A   Overcast
1:54 AM 27.0 °F - 12.0 °F 53% 29.86 in 10.0 mi Calm Calm - N/A   Overcast
2:54 AM 26.1 °F - 14.0 °F 60% 29.84 in 5.0 mi Calm Calm - 0.00 in Snow Light Snow
3:15 AM 25.0 °F 18.1 °F 16.0 °F 69% 29.79 in 3.0 mi ESE 5.8 mph - 0.00 in Snow Light Snow
3:22 AM 25.0 °F 18.1 °F 17.1 °F 72% 29.79 in 2.5 mi ESE 5.8 mph - 0.00 in Snow Light Snow
3:40 AM 24.1 °F 18.2 °F 18.0 °F 77% 29.79 in 1.8 mi ESE 4.6 mph - 0.00 in Snow Light Snow
3:54 AM 25.0 °F 19.3 °F 19.0 °F 78% 29.81 in 2.0 mi East 4.6 mph - 0.00 in Snow Light Snow
4:24 AM 25.0 °F 18.1 °F 19.9 °F 81% 29.76 in 4.0 mi East 5.8 mph - 0.00 in Snow Light Snow
4:54 AM 25.0 °F - 19.9 °F 81% 29.79 in 9.0 mi Calm Calm - 0.00 in   Overcast
5:54 AM 25.0 °F - 19.9 °F 81% 29.78 in 10.0 mi Calm Calm - N/A   Overcast
6:54 AM 26.1 °F - 21.0 °F 81% 29.77 in 10.0 mi Calm Calm - 0.00 in   Overcast
7:54 AM 26.1 °F - 21.0 °F 81% 29.77 in 10.0 mi Calm Calm - N/A   Overcast
8:54 AM 27.0 °F - 21.9 °F 81% 29.78 in 10.0 mi Calm Calm - N/A   Overcast
9:54 AM 28.9 °F - 21.0 °F 72% 29.78 in 10.0 mi Calm Calm - N/A   Overcast
10:54 AM 30.9 °F - 19.9 °F 64% 29.78 in 10.0 mi Calm Calm - N/A   Overcast
11:54 AM 33.1 °F - 19.0 °F 56% 29.76 in 10.0 mi Calm Calm - N/A   Overcast
12:54 PM 34.0 °F 28.8 °F 21.0 °F 59% 29.75 in 10.0 mi South 5.8 mph - N/A   Overcast
1:07 PM 34.0 °F 28.8 °F 21.0 °F 59% 29.72 in 10.0 mi South 5.8 mph - N/A   Overcast
1:54 PM 35.1 °F 30.1 °F 23.0 °F 61% 29.73 in 10.0 mi SSW 5.8 mph - N/A   Overcast
2:54 PM 36.0 °F - 23.0 °F 59% 29.72 in 9.0 mi Calm Calm - N/A   Overcast
3:41 PM 36.0 °F 32.1 °F 24.1 °F 62% 29.67 in 9.0 mi SSE 4.6 mph - N/A   Overcast
3:54 PM 36.0 °F 31.1 °F 24.1 °F 62% 29.69 in 8.0 mi SE 5.8 mph - N/A   Overcast
4:54 PM 37.0 °F 32.4 °F 24.1 °F 59% 29.68 in 9.0 mi ESE 5.8 mph - N/A   Overcast
5:54 PM 37.9 °F - 24.1 °F 57% 29.66 in 9.0 mi Calm Calm - N/A   Overcast
6:54 PM 37.0 °F - 25.0 °F 62% 29.65 in 9.0 mi Calm Calm - N/A   Overcast
7:54 PM 36.0 °F - 25.0 °F 64% 29.65 in 10.0 mi Calm Calm - N/A   Overcast
8:54 PM 39.9 °F 36.7 °F 25.0 °F 55% 29.62 in 10.0 mi SSE 4.6 mph - N/A   Overcast
9:54 PM 39.9 °F - 25.0 °F 55% 29.60 in 10.0 mi North - - N/A   Overcast
10:54 PM 41.0 °F - 28.0 °F 60% 29.55 in 10.0 mi North - - N/A   Overcast
11:54 PM 41.0 °F 36.4 °F 28.0 °F 60% 29.51 in 10.0 mi SW 6.9 mph - N/A   Overcast